Regional Weather Roundup
Issued by NWS

Home | Current Version | Previous Version | Graphics & Text | Print | Product List | Glossary On
Versions: 1 2 3 4 5 6 7 8 9 10 11 12 13 14 15 16 17 18 19 20 21 22 23 24 25 26 27 28
000
ASUS45 KTFX 151110
RWRMT
MONTANA REGIONAL WEATHER ROUNDUP
NATIONAL WEATHER SERVICE GREAT FALLS MT
500 AM MDT TUE AUG 15 2017

NOTE: "FAIR" INDICATES FEW OR NO CLOUDS BELOW 12000 FEET WITH NO
SIGNIFICANT WEATHER AND/OR OBSTRUCTIONS TO VISIBILITY.

MTZ001>007-043-151200-
WEST OF THE DIVIDE

CITY           SKY/WX    TMP DP  RH WIND       PRES   REMARKS
KALISPELL      CLEAR     40  38  93 CALM      29.91R
MISSOULA       MOCLDY    51  38  60 SE3       29.93S
BUTTE          CLEAR     46  35  65 CALM      30.01S
MULLAN PASS    MOCLDY    50  31  48 CALM      30.00S
ANACONDA         N/A     45  34  65 SW5       29.99S
DEER LODGE       N/A     45  36  70 CALM      30.00S
EUREKA           N/A     45  39  81 MISG      29.92R
HAMILTON         N/A     46  37  71 CALM      29.94S
LIBBY            N/A     43  36  75 CALM      29.91R
RONAN            N/A     43  38  82 CALM      29.96S
$$

MTZ008-052>055-151200-
SOUTHWEST MONTANA

CITY           SKY/WX    TMP DP  RH WIND       PRES   REMARKS
BOZEMAN        MOCLDY    51  49  92 E3        29.95F
DILLON         PTCLDY    49  43  80 CALM      29.97F
W YELLOWSTONE  CLOUDY    41  41 100 CALM      30.06S
ENNIS          MOCLDY    46  45  93 CALM      30.04S
THREE FORKS      N/A     51  47  86 CALM      29.94F
$$

MTZ009-010-012-014-046-048-049-054-151200-
EAST SLOPES AND CENTRAL MONTANA

CITY           SKY/WX    TMP DP  RH WIND       PRES   REMARKS
CUT BANK       CLEAR     40  39  97 NE5       29.92S
GREAT FALLS    CLOUDY    49  41  74 SW6       29.93F
MALMSTROM AFB  CLOUDY    51  45  79 W6        29.92F
HELENA         CLOUDY    58  37  45 SE3       29.94R
AUGUSTA          N/A     45  38  77 W8        29.94F
BOWMANS CRNR     N/A     47  39  73 W7        29.93S
CHOTEAU          N/A     48  41  76 SW5       29.95F
FAIRFIELD        N/A     46  41  80 NW5       29.93S
POWER            N/A     44  40  83 NW5       29.92F
RAYNESFORD       N/A     48  40  74 CALM      29.94S
ULM            MOCLDY    48  40  75 S3        29.93S
$$

MTZ011-013-016-021-045-047-050-051-151200-
NORTH CENTRAL MONTANA

CITY           SKY/WX    TMP DP  RH WIND       PRES   REMARKS
HAVRE          MOCLDY    50  47  89 W8        29.88R
LEWISTOWN      CLEAR     48  41  76 SW10      29.93R
N BAR RANCH    MOCLDY    48  39  71 NW8       29.93R
CHINOOK          N/A     52  46  82 CALM      29.86S
DENTON           N/A     54  41  62 NW9       29.87R
GEYSER           N/A     49  41  72 W12       29.92S
GRASS RANGE      N/A     54  43  65 NW5       29.86R
JUDITH GAP       N/A     44  39  82 NW13      29.94R
WINIFRED       MOCLDY    51  43  74 SW9       29.89R
$$

MTZ017>020-022>027-061-062-151200-
NORTHEAST MONTANA

CITY           SKY/WX    TMP DP  RH WIND       PRES   REMARKS
GLASGOW        CLOUDY    53  52  96 E3        29.81R FOG
JORDAN           N/A     53  47  79 CALM      29.81S
SIDNEY         MOCLDY    55  54  96 CALM      29.82F
WOLF POINT     FOG       55  54  96 CALM      29.82S VSB 1/4
MALTA          PTCLDY    54  50  87 NW6       29.82R
POPLAR           N/A     54  54 100 CALM      29.82S VSB 1/4
$$

MTZ028>42-056>058-151200-
SOUTHCENTRAL AND SOUTHEAST MONTANA

CITY           SKY/WX    TMP DP  RH WIND       PRES   REMARKS
BAKER          CLOUDY    55  54  96 SE5       29.86R
BILLINGS       CLOUDY    62  50  64 SW8       29.87S
LIVINGSTON     CLOUDY    57  47  69 W18       29.93F
MILES CITY     CLOUDY    57  50  77 NE3       29.83R
BIG TIMBER     PTCLDY    59  46  63 W17       29.93F
FORSYTH          N/A     57  54  88 CALM      29.82S
HARLOWTON      MOCLDY    51  38  60 MISG      29.92R
LAUREL           N/A     58  47  66 CALM      29.88S
$$

REGIONAL REPORTS...DAKOTAS

CITY           SKY/WX    TMP DP  RH WIND       PRES   REMARKS
WILLISTON      PTCLDY    57  56  96 CALM      29.82F
MINOT          CLOUDY    63  59  87 E5        29.85F
DICKINSON      CLOUDY    60  59  96 E3        29.84S
BEACH          CLOUDY    59  59 100 E3        29.88R
CROSBY         CLOUDY    59  59 100 CALM      29.84F
TIOGA          CLOUDY    61  61 100 SE7       29.86S
WATFORD CITY   CLOUDY    61  61 100 SE3       29.83S
BISMARCK       CLOUDY    61  59  93 NE7       29.85F
GRAND FORKS    CLOUDY    56  56 100 S6        29.89F
FARGO          CLOUDY    56  55  97 CALM      29.89S
BUFFALO SD       N/A     58  57  97 E6        29.78F
RAPID CITY     CLOUDY    63  59  87 S7        29.82F
$$

REGIONAL REPORTS...WYOMING/IDAHO/WASHINGTON

CITY           SKY/WX    TMP DP  RH WIND       PRES   REMARKS
GILLETTE       CLOUDY    59  56  89 S7        29.88F
SHERIDAN       CLOUDY    58  56  93 N6        29.89S
BUFFALO WY     CLOUDY    58  50  75 NW6       29.93S
CODY           CLOUDY    57  46  66 CALM      29.95S
YELLOWSTONE LA   N/A     43  42  97 CALM      30.11F
IDAHO FALLS    CLEAR     48  48 100 CALM      29.98S
SALMON         CLEAR    N/A N/A N/A CALM      29.95R
BOISE          PTCLDY    58  40  51 SE6       29.85F
SPOKANE        PTCLDY    57  34  41 S7        29.88S
$$

REGIONAL REPORTS...ALBERTA

CITY           SKY/WX    TMP DP  RH WIND       PRES   REMARKS
EDMONTON       CLEAR     54  46  76 W8        29.76S
CALGARY        MOCLDY    45  43  93 VRB2      29.88S
LETHBRIDGE     CLEAR     39  39 100 SW7       29.90S
MEDICINE HAT   CLEAR     48  45  87 SW8       29.87R
$$

REGIONAL REPORTS...SASKATCHEWAN

CITY           SKY/WX    TMP DP  RH WIND       PRES   REMARKS
SWIFT CURRENT  MOCLDY    52  50  93 W10       29.81S
REGINA         PTCLDY    59  57  94 SE12      29.82S
SASKATOON      MOCLDY    59  57  94 S9        29.74S
$$




USA.gov is the U.S. government's official web portal to all federal, state and local government web resources and services.